[[{"header":{"parameterUnit":"m.s-1","parameterCategory":1,"la1":30.2991,"la2":30.254,"lo1":-89.0895,"lo2":-89.0444,"dy":0.0017,"dx":0.0017,"nx":28,"ny":28,"refTime":"2023-07-20T09:00:00:Z","depth":0,"parameterNumber":2,"parameterNumberName":"U-component_of_WINDS"},"data":[0,0,0,0,0,0,0,0,0,0,0,0,0,0,0,0,0,0,0,0,0,0,0,0,0,0,0,0,0,0,0,0,0,0,0,0,0,0,0,0,0,0,0,0,0,0,0,0,0,0,0,0,0,0,0,0,0,0,4.3391,4.3392,0,4.3491,4.3492,4.3493,4.3445,4.3442,4.344,4.3437,4.3538,4.3543,4.3548,0,0,0,0,0,0,0,0,0,0,0,0,0,4.3154,4.3158,4.3391,4.3392,4.3394,4.3491,4.3492,4.3494,4.3445,4.3442,4.3439,4.3436,4.3537,4.3543,4.3549,0,0,0,0,0,0,0,0,0,0,0,0,0,4.3256,4.316,4.3391,4.3381,4.3381,4.3491,4.3492,4.3494,4.3446,4.3442,4.3438,4.3435,4.3535,4.3542,4.355,4.3674,0,0,4.3573,4.3576,0,0,0,0,0,0,0,0,4.325,4.3264,4.3381,4.3382,4.3382,4.3452,4.3446,4.3554,4.3447,4.3421,4.3437,4.3433,4.3512,4.3522,4.3549,4.3679,4.3683,4.3574,4.3578,4.3581,4.3584,0,0,0,0,0,0,0,4.3243,4.326,4.3431,4.3383,4.3384,4.337,4.3381,4.3466,4.3487,4.3423,4.342,4.3433,4.3512,4.3542,4.3551,4.3684,4.3573,4.358,4.3585,4.3588,4.3916,4.3919,0,0,0,0,0,0,4.3237,4.3254,4.3427,4.3434,4.3305,4.3378,4.3389,4.3433,4.3486,4.3491,4.3436,4.343,4.353,4.3542,4.3554,4.3699,4.3581,4.3589,4.3593,4.3911,4.3916,4.3921,0,0,0,0,0,0,4.3232,4.3253,4.3423,4.3343,4.3364,4.3386,4.3436,4.3437,4.3467,4.3496,4.3499,4.3462,4.3528,4.3543,4.3643,4.3702,4.3592,4.3599,4.3907,4.3913,4.3919,4.3993,0,0,0,0,0,0,4.3225,4.3251,4.33,4.3345,4.3368,4.3512,4.344,4.3442,4.348,4.3474,4.3521,4.3526,4.3526,4.3632,4.3651,4.3711,4.3605,4.3901,4.3909,4.3917,4.3985,4.4001,4.4014,0,0,0,0,0,4.3217,4.3318,4.3303,4.3324,4.343,4.3516,4.3529,4.3528,4.3485,4.3533,4.3551,4.3524,4.3693,4.3643,4.3664,4.3726,4.3898,4.3907,4.3916,4.3979,4.3998,4.4014,0,0,0,0,0,0,4.328,4.3323,4.3307,4.3426,4.3467,4.3508,4.3568,4.3549,4.3604,4.3595,4.3591,4.3602,4.3704,4.3726,4.3669,4.3847,4.3789,4.3802,4.3829,4.3847,4.3861,4.3853,4.3611,0,0,0,0,0,4.3307,4.3375,4.3409,4.351,4.3532,4.3547,4.3584,4.3579,4.3622,4.3639,4.3665,4.3707,4.3768,4.3809,4.3869,4.3988,4.3996,4.4042,4.4056,4.4068,4.4079,4.4139,4.4158,4.3951,4.3951,4.3951,0,0,4.3365,4.3397,4.344,4.3523,4.3555,4.3622,4.3562,4.3637,4.3686,4.3651,4.3745,4.3765,4.3811,4.392,4.397,4.3941,4.4138,4.408,4.4089,4.4094,4.415,4.417,4.4187,4.3958,4.3957,4.3956,0,0,4.3504,4.3537,4.3623,4.3655,4.3703,4.3712,4.3732,4.3775,4.3786,4.3882,4.3855,4.3913,4.4021,4.4054,4.4084,4.4232,4.4207,4.4251,4.4326,4.4385,4.4401,4.4415,4.4463,4.4481,4.4263,4.4263,4.4263,0,4.357,4.3672,4.3669,4.3745,4.378,4.3751,4.3835,4.3867,4.3932,4.3957,4.3924,4.4056,4.4086,4.4199,4.4235,4.4262,4.4283,4.4245,4.4399,4.4413,4.4426,4.4472,4.4491,4.4268,4.4267,4.4267,4.4266,0,4.3747,4.3818,4.3881,4.3943,4.3986,4.4067,4.4074,4.4118,4.4108,4.412,4.4214,4.4248,4.4311,4.4339,4.4332,4.445,4.443,4.4399,4.434,4.4451,4.4494,4.4512,4.4275,4.4273,4.4271,4.427,0,0,4.3929,4.3987,4.401,4.4035,4.4085,4.4139,4.4216,4.4278,4.4313,4.4359,4.4421,4.4512,4.4481,4.4516,4.4512,4.4564,4.4672,4.4525,4.4526,4.4547,4.48,4.4821,4.4842,4.4657,4.4661,4.4664,4.4795,0,4.4068,4.4204,4.4202,4.4327,4.4389,4.4361,4.4427,4.4464,4.4476,4.453,4.4543,4.4605,4.4563,4.4583,4.4633,4.4649,4.4722,4.464,4.4712,4.4715,4.4698,4.4865,4.4888,4.5011,4.4812,4.4815,4.4817,0,4.4249,4.4298,4.4429,4.4465,4.4492,4.4552,4.4605,4.4659,4.4698,4.4703,4.474,4.4727,4.4802,4.4742,4.4844,4.4788,4.4818,4.4829,4.4834,4.4838,4.477,4.487,4.505,4.5067,4.4844,4.4842,4.484,0,4.4363,4.4463,4.4552,4.4576,4.4622,4.4664,4.4685,4.4721,4.4756,4.4803,4.4825,4.4881,4.4911,4.4953,4.4953,4.4911,4.5055,4.4997,4.5058,4.5058,4.5088,4.5085,4.5271,4.5113,4.5113,4.5113,4.5112,0,4.4516,4.4596,4.4603,4.4658,4.4746,4.4742,4.4828,4.4845,4.4877,4.4932,4.4912,4.4965,4.4964,4.5017,4.5018,4.51,4.5114,4.5118,4.5117,4.5118,4.5117,4.5135,4.5125,4.5117,4.5116,4.5115,4.5115,0,4.4657,4.4666,4.4761,4.4796,4.4807,4.4869,4.4898,4.4949,4.4958,4.5029,4.5045,4.506,4.512,4.5126,4.5197,4.5197,4.5294,4.5286,4.5281,4.5278,4.5338,4.533,4.5539,4.5565,4.5393,4.5395,4.5397,0,4.4753,4.4814,4.4854,4.489,4.4913,4.4971,4.5007,4.5005,4.5042,4.509,4.5134,4.5193,4.5239,4.5337,4.5353,4.5406,4.5396,4.5465,4.5403,4.5401,4.5392,4.5386,4.539,4.5476,4.5478,4.548,4.5481,0,4.4921,4.4921,4.4973,4.5026,4.5069,4.511,4.5149,4.5179,4.5182,4.5224,4.5286,4.5322,4.5393,4.5449,4.5501,4.552,4.55,4.55,4.5517,4.5517,4.5509,4.551,4.5309,4.5495,4.5494,4.5493,4.5492,4.5491,4.5039,4.509,4.5125,4.5182,4.5211,4.5247,4.5295,4.531,4.5361,4.5418,4.5414,4.5481,4.5515,4.5581,4.5605,4.5655,4.5632,4.5656,4.5662,4.5667,4.5671,4.5504,4.5665,4.5665,4.5664,4.5664,4.5664,0,4.5201,4.5222,4.5275,4.5329,4.5373,4.5351,4.5392,4.543,4.5489,4.5523,4.5568,4.5636,4.5691,4.571,4.5763,4.5799,4.579,4.5812,4.5808,4.5812,4.5692,4.567,4.5818,4.5818,4.5818,4.5818,4.5818,4.5818,4.5291,4.5374,4.5378,4.5473,4.5493,4.5558,4.5582,4.5614,4.564,4.5717,4.5762,4.5775,4.5801,4.5855,4.5903,4.5907,4.5925,4.595,4.595,4.5836,4.5821,4.5806,4.5785,4.5955,4.5955,4.6065,4.6066,4.6067]},{"header":{"parameterUnit":"m.s-1","parameterCategory":1,"la1":30.2991,"la2":30.254,"lo1":-89.0895,"lo2":-89.0444,"dy":0.0017,"dx":0.0017,"nx":28,"ny":28,"refTime":"2023-07-20T09:00:00:Z","depth":0,"parameterNumber":3,"parameterNumberName":"V-component_of_WINDS"},"data":[0,0,0,0,0,0,0,0,0,0,0,0,0,0,0,0,0,0,0,0,0,0,0,0,0,0,0,0,0,0,0,0,0,0,0,0,0,0,0,0,0,0,0,0,0,0,0,0,0,0,0,0,0,0,0,0,0,0,3.8352,3.8353,0,3.846,3.8461,3.8463,3.8428,3.8425,3.8423,3.8421,3.8529,3.8534,3.8539,0,0,0,0,0,0,0,0,0,0,0,0,0,3.811,3.8114,3.8352,3.8353,3.8355,3.846,3.8462,3.8463,3.8428,3.8425,3.8422,3.842,3.8527,3.8533,3.8539,0,0,0,0,0,0,0,0,0,0,0,0,0,3.8216,3.8116,3.8352,3.835,3.8351,3.846,3.8462,3.8463,3.8429,3.8425,3.8422,3.8418,3.8525,3.8532,3.854,3.8656,0,0,3.8563,3.8566,0,0,0,0,0,0,0,0,3.821,3.8225,3.8349,3.835,3.8351,3.8427,3.8416,3.8528,3.843,3.8399,3.8421,3.8417,3.8497,3.8507,3.8535,3.8661,3.8666,3.8564,3.8568,3.8571,3.8574,0,0,0,0,0,0,0,3.8203,3.822,3.8395,3.8351,3.8352,3.8342,3.8353,3.8437,3.8466,3.8401,3.8399,3.8413,3.8497,3.8528,3.8537,3.8667,3.8563,3.857,3.8575,3.8578,3.8891,3.8895,0,0,0,0,0,0,3.8195,3.8214,3.8391,3.8398,3.8271,3.8349,3.8362,3.8406,3.8465,3.8471,3.8415,3.8411,3.8517,3.8528,3.8541,3.8679,3.8571,3.8578,3.8583,3.8888,3.8892,3.8896,0,0,0,0,0,0,3.819,3.8211,3.8387,3.8306,3.8327,3.8357,3.8407,3.841,3.844,3.8476,3.8481,3.8441,3.8514,3.853,3.8627,3.8683,3.8582,3.8589,3.8883,3.8889,3.8894,3.8958,0,0,0,0,0,0,3.8183,3.821,3.8256,3.8307,3.8332,3.8473,3.8411,3.8415,3.8454,3.8449,3.8501,3.8507,3.8513,3.8616,3.8635,3.8691,3.8595,3.8878,3.8886,3.8893,3.8952,3.8966,3.8978,0,0,0,0,0,3.8175,3.8269,3.8258,3.828,3.839,3.8477,3.849,3.8496,3.8459,3.8504,3.8526,3.8505,3.8674,3.8626,3.8647,3.8707,3.8875,3.8884,3.8892,3.8946,3.8963,3.8977,0,0,0,0,0,0,3.8223,3.8276,3.8264,3.8378,3.8423,3.847,3.8528,3.8515,3.8571,3.8563,3.8567,3.8579,3.8678,3.8702,3.8649,3.8821,3.8768,3.8781,3.8802,3.8819,3.8832,3.8824,3.8601,0,0,0,0,0,3.8247,3.8314,3.8356,3.8453,3.8476,3.8498,3.8536,3.8537,3.8583,3.8602,3.8631,3.8676,3.8738,3.878,3.884,3.8954,3.8964,3.9005,3.9018,3.9029,3.904,3.9101,3.9119,3.8925,3.8924,3.8924,0,0,3.8297,3.8334,3.8376,3.8463,3.8498,3.8566,3.8514,3.8589,3.8639,3.8612,3.8706,3.8729,3.8779,3.8885,3.8933,3.8908,3.9096,3.904,3.9048,3.9054,3.9111,3.913,3.9146,3.893,3.8929,3.8928,0,0,3.8423,3.8458,3.8542,3.8578,3.8631,3.8645,3.8665,3.8714,3.8729,3.8823,3.8804,3.8862,3.8971,3.9007,3.9039,3.9176,3.9158,3.9195,3.9264,3.9323,3.9338,3.9351,3.9399,3.9416,3.9206,3.9206,3.9207,0,3.8478,3.8581,3.8586,3.8662,3.87,3.8679,3.8763,3.8797,3.8867,3.8893,3.8863,3.8998,3.903,3.9143,3.9176,3.9204,3.9225,3.9189,3.9336,3.9349,3.9362,3.9407,3.9425,3.9211,3.921,3.921,3.9209,0,3.8646,3.8717,3.8778,3.8847,3.8891,3.8971,3.8986,3.903,3.9026,3.9042,3.9136,3.9174,3.924,3.9267,3.9264,3.938,3.9362,3.9334,3.9282,3.9384,3.9427,3.9445,3.9216,3.9215,3.9214,3.9213,0,0,3.8806,3.8876,3.8898,3.8928,3.8984,3.9039,3.9116,3.9182,3.9219,3.9267,3.9331,3.9422,3.9396,3.9433,3.9433,3.9485,3.9589,3.945,3.9451,3.9474,3.9717,3.9737,3.9757,3.9577,3.9581,3.9583,3.9712,0,3.8936,3.9074,3.9079,3.9204,3.9269,3.9249,3.9315,3.9356,3.9373,3.9429,3.9447,3.9512,3.9473,3.9495,3.9545,3.9566,3.9638,3.9557,3.9635,3.9638,3.9623,3.978,3.9802,3.9922,3.9729,3.9732,3.9734,0,3.9107,3.9161,3.9292,3.9337,3.9365,3.9425,3.9485,3.9539,3.9584,3.9592,3.9633,3.9625,3.9702,3.9646,3.9751,3.9696,3.9728,3.9742,3.9747,3.9754,3.9692,3.9791,3.9961,3.9978,3.9761,3.9758,3.9757,0,3.9209,3.9315,3.9406,3.9433,3.9489,3.9531,3.9556,3.9598,3.9636,3.9687,3.9712,3.9771,3.9803,3.9848,3.9856,3.9815,3.996,3.9906,3.9968,3.9968,4.0,3.9998,4.0177,4.0021,4.0021,4.0021,4.002,0,3.9354,3.9435,3.9453,3.951,3.9598,3.9603,3.969,3.9712,3.9749,3.9807,3.9793,3.9848,3.9855,3.9911,3.9917,4.0002,4.0017,4.0025,4.0025,4.0026,4.0025,4.0047,4.0039,4.0026,4.0024,4.0024,4.0023,0,3.9484,3.95,3.9598,3.9643,3.9655,3.9719,3.9756,3.9809,3.9823,3.9898,3.9915,3.9938,4.0003,4.0015,4.0092,4.0096,4.0197,4.0189,4.0182,4.0181,4.0242,4.0236,4.0442,4.0468,4.0296,4.0298,4.0299,0,3.9575,3.9637,3.9687,3.9726,3.9753,3.9816,3.9855,3.9861,3.9901,3.9956,4.0002,4.0066,4.0118,4.0222,4.0245,4.0303,4.0296,4.0364,4.0305,4.0303,4.0296,4.0292,4.0298,4.0375,4.0377,4.0379,4.038,0,3.9734,3.9739,3.9796,3.9856,3.9903,3.995,3.9995,4.0027,4.0038,4.0084,4.0151,4.0191,4.0269,4.0332,4.039,4.0414,4.0398,4.0398,4.0416,4.0417,4.041,4.0413,4.0213,4.0394,4.0392,4.0391,4.0391,4.039,3.9847,3.99,3.9944,4.0008,4.0042,4.0084,4.0135,4.0156,4.0212,4.0277,4.0276,4.0349,4.039,4.0466,4.0493,4.0549,4.0527,4.0553,4.0559,4.0565,4.0571,4.0401,4.056,4.0559,4.0559,4.0559,4.0558,0,4.0005,4.0032,4.0091,4.0153,4.0203,4.0185,4.0233,4.0275,4.034,4.038,4.0431,4.0506,4.0567,4.0593,4.0653,4.0692,4.0686,4.0707,4.0704,4.071,4.0587,4.0566,4.0711,4.0711,4.0711,4.0711,4.0711,4.0711,4.0093,4.0182,4.0191,4.0295,4.0321,4.0393,4.0422,4.0459,4.0491,4.0577,4.0628,4.0645,4.0679,4.074,4.0794,4.08,4.0822,4.0846,4.0849,4.0734,4.0718,4.0704,4.0684,4.0851,4.0851,4.0966,4.0967,4.0968]}]]